Location: Newark
(45.2862°N, 9.8850°E)
Time: 02:11:03
(UTC+00:00)

ISS - Visible Passes

Search period start: 15 December 2019 00:00
Search period end: 25 December 2019 00:00
Orbit: 411 x 421 km, 51.6° (Epoch: 15 December)

Date Brightness Start Highest point End Pass type
(mag) Time Alt. Az. Time Alt. Az. Time Alt. Az.
20 Dec -0.7 06:07:56 10° S 06:10:22 19° SE 06:12:49 10° E visible
21 Dec -0.4 05:20:47 10° SSE 05:22:02 12° SE 05:23:17 10° ESE visible
22 Dec -2.6 06:06:34 10° SW 06:09:45 47° SE 06:12:58 10° ENE visible
23 Dec -1.8 05:18:23 10° SSW 05:21:18 29° SE 05:24:13 10° ENE visible
24 Dec -1.2 04:31:38 15° SSE 04:32:53 18° SE 04:35:13 10° E visible
24 Dec -3.9 06:05:58 10° WSW 06:09:17 74° NNW 06:12:37 10° ENE visible
